MDT,Max TemperatureF,Mean TemperatureF,Min TemperatureF,Max Dew PointF,MeanDew PointF,Min DewpointF,Max Humidity, Mean Humidity, Min Humidity, Max Sea Level PressureIn, Mean Sea Level PressureIn, Min Sea Level PressureIn, Max VisibilityMiles, Mean VisibilityMiles, Min VisibilityMiles, Max Wind SpeedMPH, Mean Wind SpeedMPH, Max Gust SpeedMPH,PrecipitationIn, CloudCover, Events, WindDirDegrees
2014-4-1,64,47,30,12,7,3,35,21,11,30.03,29.93,29.79,10,10,8,34,10,41,0.00,2,,243
2014-4-2,60,45,30,18,10,3,35,24,14,29.89,29.80,29.69,10,10,10,29,10,38,0.00,3,,265
2014-4-3,39,32,23,28,20,9,93,66,30,30.17,29.92,29.77,10,9,0,26,9,31,0.00,5,Thunderstorm,236
2014-4-4,51,30,10,27,14,5,93,57,17,30.19,30.10,30.00,10,10,2,15,4,23,0.00,1,,253
2014-4-5,51,36,21,30,21,10,93,58,30,30.00,29.93,29.83,10,10,6,28,6,37,0.01,5,Thunderstorm,28
2014-4-6,48,39,30,34,28,19,100,74,32,30.04,29.96,29.89,10,9,2,20,6,26,0.01,5,,341
2014-4-7,55,39,23,28,17,7,100,54,14,30.32,30.16,30.04,10,7,0,25,7,33,0.00,3,,1
2014-4-8,64,42,19,19,15,9,74,37,16,30.40,30.33,30.27,10,10,10,14,6,17,0.00,0,,326
2014-4-9,71,48,26,21,15,7,69,32,11,30.35,30.25,30.14,10,10,10,22,7,31,0.00,0,,324
2014-4-10,71,50,28,18,10,1,47,21,10,30.20,30.15,30.08,10,10,10,24,10,31,0.00,0,,309
2014-4-11,69,48,28,18,8,1,43,20,10,30.24,30.15,30.06,10,10,10,20,6,28,0.00,0,,233
2014-4-12,68,48,28,30,17,3,46,28,16,30.08,29.96,29.84,10,10,10,23,8,38,0.00,3,Thunderstorm,236
2014-4-13,62,48,33,32,25,18,81,51,19,29.95,29.83,29.73,10,10,9,31,9,43,0.00,4,,264
2014-4-14,42,30,19,25,18,14,93,62,36,30.26,30.16,29.95,10,8,0,16,9,25,0.00,4,,318
2014-4-15,60,38,15,19,10,0,86,40,11,30.25,30.12,29.97,10,10,10,24,6,31,0.00,0,,298
2014-4-16,66,45,24,34,11,-2,87,28,11,30.08,29.94,29.85,10,10,9,21,8,31,0.00,3,,293
2014-4-17,60,44,28,34,26,18,93,53,22,30.25,30.17,30.09,10,10,10,20,8,26,0.00,2,,290
2014-4-18,69,48,28,27,21,14,69,35,15,30.27,30.19,30.09,10,10,10,23,7,28,0.00,0,,232
2014-4-19,62,50,39,39,33,25,87,55,26,30.23,30.17,30.09,10,10,10,24,8,29,0.00,5,,252
2014-4-20,60,51,42,43,38,34,93,68,39,30.26,30.18,30.14,10,10,10,17,5,33,0.03,7,Thunderstorm,131
2014-4-21,71,52,32,39,33,19,87,54,15,30.34,30.28,30.22,10,10,10,25,7,32,0.02,1,,321
2014-4-22,73,54,35,37,30,21,75,43,15,30.31,30.14,29.97,10,10,10,30,10,38,0.00,3,,208
2014-4-23,64,52,39,32,22,10,46,30,18,29.98,29.91,29.82,10,10,9,32,12,39,0.00,2,,265
2014-4-24,62,43,24,14,7,-11,55,26,10,30.19,30.11,29.99,10,10,10,18,9,28,0.00,0,,286
2014-4-25,69,46,24,14,6,-9,34,19,12,30.13,30.03,29.91,10,10,10,22,6,30,0.00,0,,205
2014-4-26,62,45,28,34,17,10,93,37,14,29.91,29.77,29.58,10,9,2,38,12,48,0.01,2,,211
2014-4-27,50,39,28,30,21,10,86,53,27,29.84,29.67,29.60,10,10,10,31,17,38,0.01,6,,275
2014-4-28,53,38,24,19,12,1,55,36,13,30.08,29.89,29.82,10,10,10,37,13,43,0.00,3,,327
2014-4-29,50,36,23,12,9,7,50,33,17,30.23,30.16,30.09,10,10,10,18,10,25,0.00,2,,360
2014-4-30,53,37,21,27,15,9,65,40,18,30.30,30.25,30.18,10,10,10,21,9,28,0.00,3,,50